Flag for U.S.A. Weather past 2 weeks in Jacksonville, Florida, U.S.A.

Now
50 °F

Scattered clouds.


Feels Like: 50 °F
Forecast: 45 / 71 °F
Wind: No wind

Location: Jacksonville Naval Air Station

Current Time: Feb 1, 2015 at 8:50:39 AM

Latest Report: Feb 1, 2015 at 7:53 AM


Visibility: 10 mi

Pressure: 30.25 "Hg

Humidity: 80%

Dew point: 44 °F

Location of JacksonvilleLocation

Historic Weather in Jacksonville — Graph

°F

Jacksonville temperature yesterday

Maximum temperature yesterday: 62 °F (at 2:53 PM)
Minimum temperature yesterday: 44 °F (at 6:53 AM)
Average temperature yesterday: 54 °F

Past Weeks' High & Low Weather Summary

 TemperatureHumidityPressure
High75 °F (Jan 21, 4:53 PM)87% (Jan 23, 4:53 PM)30.35 "Hg (Jan 23, 4:53 PM)
Low40 °F (Jan 29, 4:53 AM)19% (Jan 19, 1:53 PM)29.69 "Hg (Jan 24, 4:53 AM)
Average58 °F61%30.09 "Hg
* Reported Jan 17 6:53 AM — Feb 1 6:53 AM, Jacksonville, Weather by CustomWeather, © 2014

Note: Actual official high and low records may vary slightly from our data, if they occured in-between our weather recording intervals... More about our weather records

Advertising

Jacksonville weather history for previous 24 hours

 ConditionsComfort  
Time TempWeatherWind HumidityBarometerVisibility
6:53 AM
Feb 1
50 °FPassing clouds.No wind80%30.25 "Hg10 mi
5:53 AM50 °FPassing clouds.No wind80%30.24 "Hg10 mi
4:53 AM53 °FPassing clouds.3 mph83%30.23 "Hg10 mi
3:53 AM54 °FPassing clouds.3 mph80%30.24 "Hg10 mi
2:53 AM54 °FPassing clouds.No wind77%30.24 "Hg10 mi
1:53 AM54 °FPassing clouds.6 mph74%30.26 "Hg10 mi
12:53 AM54 °FPassing clouds.5 mph74%30.27 "Hg10 mi
11:53 PM
Jan 31
53 °FPassing clouds.6 mph74%30.29 "Hg10 mi
10:53 PM53 °FPassing clouds.7 mph72%30.30 "Hg10 mi
9:53 PM54 °FPassing clouds.7 mph67%30.31 "Hg10 mi
8:53 PM54 °FPassing clouds.7 mph64%30.32 "Hg10 mi
7:53 PM54 °FPassing clouds.7 mph59%30.32 "Hg10 mi
6:53 PM55 °FPassing clouds.8 mph57%30.32 "Hg10 mi
5:53 PM57 °FPartly sunny.12 mph51%30.32 "Hg10 mi
4:53 PM59 °FScattered clouds.12 mph48%30.31 "Hg10 mi
3:53 PM61 °FPartly sunny.12 mph42%30.31 "Hg10 mi
2:53 PM62 °FPartly sunny.12 mph39%30.31 "Hg10 mi
1:53 PM59 °FPartly sunny.10 mph42%30.32 "Hg10 mi
12:53 PM60 °FPartly sunny.13 mph42%30.33 "Hg10 mi
11:53 AM61 °FScattered clouds.12 mph41%30.35 "Hg10 mi
10:53 AM59 °FPassing clouds.14 mph42%30.35 "Hg10 mi
9:53 AM55 °FPartly sunny.9 mph57%30.33 "Hg10 mi
8:53 AM49 °FPartly sunny.8 mph66%30.32 "Hg10 mi
Weather by CustomWeather, © 2014

See weather overviewHow to use our weather pages